Location: Berlin
(38.3226°N, 75.2177°W)
Time: 23:21:37
(UTC+00:00)

Meteor 2-5 Rocket - Pass Details

Date: 26 October 2020
Orbit: 834 x 911 km, 81.2° (Epoch: 25 November)

Event Time Altitude Azimuth Distance (km) Brightness Sun altitude
Rises 09:35:15 0° 185° (S) 3,401 6.8 -21.4°
Reaches altitude 10° 09:37:38 10° 184° (S) 2,479 6.1 -20.9°
Maximum altitude 09:43:16 82° 98° (E) 881 3.8 -19.8°
Drops below altitude 10° 09:49:04 10° 11° (N) 2,548 6.3 -18.7°
Sets 09:51:33 0° 11° (N) 3,503 7.0 -18.2°
